Regional Weather Roundup
Issued by NWS Green Bay, WI

Home | Current Version | Previous Version | Graphics & Text | Print | Product List | Glossary Off
Versions: 1 2 3 4 5 6 7 8 9 10 11 12 13 14 15 16 17 18 19 20 21 22 23 24 25 26 27 28 29 30 31 32 33 34 35 36 37 38 39 40 41 42 43 44 45 46 47 48 49 50

000
ASUS43 KGRB 261259
RWRGRB

NORTH-CENTRAL AND NORTHEAST WISCONSIN REGIONAL WEATHER ROUNDUP
NATIONAL WEATHER SERVICE GREEN BAY WI
700 AM CST MON JAN 26 2015

WIZ005-009-010>012-018-019-261400-
NORTH CENTRAL WISCONSIN

CITY           SKY/WX    TMP DP  RH WIND       PRES   REMARKS
IRONWOOD       CLOUDY    18  12  79 S6G16     29.70F WCI   9
MANITOWISH WTR NOT AVBL
ARBOR VITAE    NOT AVBL
EAGLE RIVER    NOT AVBL
LAND O LAKES   NOT AVBL
RHINELANDER    CLOUDY    14   5  67 S8        29.79F WCI   3
PHILLIPS       NOT AVBL
ANTIGO         NOT AVBL
TOMAHAWK       NOT AVBL
MERRILL        NOT AVBL
$$

WIZ013-073-261400-
NORTHEAST WISCONSIN

CITY           SKY/WX    TMP DP  RH WIND       PRES   REMARKS
IRON MOUNTAIN  CLOUDY     6   2  83 S5        29.85F WCI  -3
MARINETTE      CLOUDY    10   7  85 CALM      29.94F
$$

WIZ017-030-035>037-045-261400-
CENTRAL WISCONSIN

CITY           SKY/WX    TMP DP  RH WIND       PRES   REMARKS
MEDFORD        NOT AVBL
WAUSAU         CLOUDY    14   7  73 SE6       29.82F WCI   5
MOSINEE        CLOUDY    12   9  85 SE6       29.85F WCI   3
MARSHFIELD     FLURRIES  17  10  74 S9        29.83F WCI   6
WISC RAPIDS    CLOUDY    16   8  71 S6        29.88F WCI   7
STEVENS POINT  NOT AVBL
WAUPACA        NOT AVBL
SHAWANO        NOT AVBL
CLINTONVILLE   NOT AVBL
$$

WIZ038-039-048-051-261400-
FOX VALLEY

CITY           SKY/WX    TMP DP  RH WIND       PRES   REMARKS
NWS GREEN BAY  PTCLDY    13   9  84 CALM      29.94F
APPLETON       CLOUDY    16   9  73 VRB3      29.93F
OSHKOSH        CLOUDY    16   9  74 CALM      29.93F
FOND DU LAC    MOCLDY    14   9  80 CALM      29.93F
$$

WIZ022-050-052-261400-
EAST CENTRAL WISCONSIN

CITY           SKY/WX    TMP DP  RH WIND       PRES   REMARKS
STURGEON BAY   CLOUDY    12   7  79 CALM      29.95F
MANITOWOC      NOT AVBL
SHEBOYGAN      CLOUDY    15  11  83 CALM      29.94F
$$

LMZ563-521-522-541>543-261400-
LAKESHORE

STATION/POSITION TIME  TEMP    WIND        PRES    VSBY  WAVE
                       AIR SEA DIR/SP/G                  HT/PER
                 (UTC) (F)     (DEG/KT/KT) (MB)    (MI)  (FT/S)
SHEBOYGAN LKSHOR 1200   20     230/  3/  3 1015.6F
KEWAUNEE LKSHORE 1200   14     300/  4/  6 1013.3F
NORTHPORT PIER   1200   14      CALM  /  1 1014.6S
SISTER BAY LKSHO 1200   12        CALM       N/A
CHAMBERS ISLAND  1200    7      CALM  /  1 1014.2F
MENOMINEE LKSHOR 1200   12     250/  1/  2 1015.1R
$$



USA.gov is the U.S. government's official web portal to all federal, state and local government web resources and services.